User: anonymous   Login
Location: G�ndlingen
(48.0142°N, 7.6396°E)
Time: 01:57:56
(UTC+00:00)
Language:

Cosmos 1727 Rocket - Orbit

View from above orbital plane
View from above orbital plane
View from above satellite
View from above satellite

Ground track
Ground track

The orbit data is extracted from the following two-line orbital elements,

1 16511U 86008B   20272.48319965 -.00000030 +00000-0 -47016-4 0  9991
2 16511 082.9445 050.4981 0024409 169.5075 252.9785 13.75798967740929
Epoch (UTC): 28 September 2020 11:35:48
Eccentricity: 0.0024409
inclination: 82.9445°
perigee height: 961 km
apogee height: 997 km
right ascension of ascending node: 50.4981°
argument of perigee: 169.5075°
revolutions per day: 13.75798967
mean anomaly at epoch: 252.9785°
orbit number at epoch: 74092

The dashed part of the orbit path shows where the satellite is in the earth's shadow,  

DLR